Temperature
26 27 27 27 26 26 26 27 27 27 27 27 26 25 24 23 23 23 22 21 20 20 19 19 18 18 17 17 17 17 17 16 16 16 16 16 16 16 16 16 16 16 16 16
25 26 26 26 26 26 26 26 26 26 26 26 25 24 23 22 22 22 21 21 20 19 19 19 18 18 18 17 17 17 17 17 17 16 16 16 16 16 16 16 16 16 16 16
25 25 25 24 25 26 26 26 26 26 25 25 24 23 22 21 21 21 21 20 19 19 19 18 18 18 18 18 17 17 17 17 17 16 17 17 16 16 16 16 16 16 16 16
24 24 23 25 25 25 24 25 25 25 24 24 23 21 20 19 19 19 19 19 19 18 18 18 18 18 18 18 17 17 17 17 17 17 17 17 16 16 16 16 16 16 16 16
23 23 24 23 23 23 23 23 23 23 23 22 21 21 19 17 17 17 17 17 17 18 18 18 18 18 18 17 17 17 17 17 17 17 17 17 16 17 17 16 16 16 16 16
22 22 22 23 22 21 22 21 21 21 21 21 21 22 20 16 16 16 16 16 16 17 17 17 17 17 17 17 17 17 17 17 17 17 17 17 17 17 17 16 16 16 16 16
21 22 22 21 21 21 21 20 19 19 19 19 19 18 16 15 15 15 15 15 16 16 16 16 16 17 17 17 16 16 16 16 16 16 17 17 16 16 16 16 16 16 15 15
21 21 21 20 20 20 19 18 18 17 18 17 16 15 15 14 14 14 14 15 15 15 15 15 16 16 16 16 16 16 16 16 16 16 16 16 16 15 15 15 15 15 15 15
20 19 18 18 17 16 16 16 16 16 16 16 15 15 14 14 14 13 13 14 14 14 14 14 14 15 15 15 15 15 15 15 15 15 15 15 15 15 15 14 14 14 14 14
18 18 17 16 16 15 15 15 15 15 15 15 14 14 13 13 13 13 13 13 13 13 13 13 14 14 14 14 14 14 14 14 14 14 14 14 14 14 14 14 14 14 13 13
18 17 16 15 14 14 14 14 14 14 14 13 13 13 12 12 12 12 12 12 12 12 12 12 13 13 13 13 14 14 14 13 13 14 13 13 13 13 13 13 13 13 13 13
17 16 16 14 13 13 13 13 13 13 12 12 12 11 11 11 11 11 11 11 11 12 12 12 12 12 12 13 13 13 13 13 13 13 13 13 13 12 12 12 12 12 12 12
15 15 14 13 13 13 12 12 12 12 12 11 11 11 11 10 10 11 11 11 11 11 11 11 11 12 12 12 12 12 12 12 12 12 12 12 12 12 12 12 12 11 11 11
14 14 13 13 12 12 12 12 11 11 11 11 10 10 10 10 10 10 10 10 11 11 11 11 11 11 11 11 11 11 11 12 12 12 12 12 12 12 12 12 11 11 11 10
13 13 13 12 12 12 12 11 11 11 11 10 10 10 10 10 10 10 10 11 11 11 11 11 10 10 11 11 11 11 11 11 11 11 11 11 11 11 11 11 11 11 10 10
13 13 12 12 12 12 12 11 11 11 11 11 11 10 10 10 10 10 10 11 11 10 10 10 10 10 10 10 11 11 11 11 11 11 11 11 11 11 11 11 10 10 10 9
13 13 12 12 12 12 12 12 11 11 11 11 11 10 10 10 10 10 10 10 10 10 10 10 10 10 10 10 10 10 10 10 10 10 10 10 10 10 10 10 10 9 9 8
12 12 12 12 12 12 11 11 11 11 11 11 11 11 11 11 10 10 10 10 10 10 9 9 9 9 9 9 9 10 10 10 10 10 9 9 9 9 9 9 9 9 8 8
12 12 12 12 11 11 11 11 11 11 11 11 11 10 10 10 10 10 10 10 10 9 9 9 9 9 9 9 9 9 9 9 9 9 9 8 9 8 8 8 8 8 7 7
11 11 11 11 11 11 11 11 11 11 11 10 10 10 10 9 9 9 9 9 8 8 8 8 8 8 8 8 8 8 8 8 8 8 8 8 8 7 7 7 7 7 6 6
11 11 11 11 11 11 11 11 10 10 10 10 10 9 9 9 9 9 9 9 8 7 7 8 7 7 7 7 7 7 7 7 7 7 7 7 6 6 6 6 6 6 5 5
10 10 10 10 10 10 10 10 10 10 10 9 9 9 9 9 9 8 8 8 7 7 7 7 7 7 6 6 6 6 6 6 6 6 6 5 5 5 5 5 5 5 4 4
10 10 10 10 10 10 10 10 9 9 9 9 9 9 9 8 9 8 7 7 7 6 6 6 6 6 6 5 5 5 5 5 5 5 4 4 4 4 4 4 4 4 4 4
9 9 9 9 9 9 9 9 9 9 9 8 8 8 8 8 8 7 7 6 6 6 5 5 5 5 5 5 5 4 4 4 4 4 4 4 4 4 4 3 3 3 3 3
9 9 9 9 9 9 9 9 8 8 8 8 8 7 7 7 7 6 6 5 5 5 5 4 4 4 4 4 4 4 3 3 3 3 3 3 3 3 3 3 2 2 2 2
8 8 8 8 9 9 9 9 9 8 8 8 7 7 7 6 6 6 5 5 4 4 4 4 3 3 3 3 3 3 3 3 3 3 2 2 2 2 2 2 2 2 2 2
8 8 8 8 8 8 8 8 8 8 7 7 7 6 6 6 5 5 5 4 4 4 4 3 3 3 3 3 3 2 2 2 2 2 2 2 2 2 1 1 1 1 1 1
Wind_Speed
9 6 7 9 10 11 12 12 12 9 7 3 2 2 1 1 3 5 7 8 9 10 10 11 12 12 13 14 15 15 15 15 15 14 14 14 14 14 13 13 13 13 13 12
9 8 8 10 11 11 12 11 11 10 7 1 2 2 2 1 2 4 5 6 8 9 10 11 12 13 13 14 15 15 16 16 15 14 15 14 14 14 13 13 13 12 13 13
9 7 8 12 10 11 10 9 10 10 5 1 1 2 3 2 1 1 2 4 6 7 8 9 11 12 13 14 14 15 15 15 14 14 15 15 15 14 14 14 13 13 13 12
7 7 12 2 1 3 5 5 5 4 3 1 1 2 4 4 3 2 2 1 2 4 5 7 8 9 10 12 13 13 13 13 13 14 14 13 13 13 13 12 11 11 12 12
7 10 8 3 1 2 4 3 2 2 1 0 2 4 5 7 6 4 3 2 1 1 3 5 6 8 9 10 11 12 12 12 12 13 12 12 12 11 11 11 11 11 11 11
8 9 8 2 3 2 4 4 2 3 2 0 2 4 3 7 7 6 6 5 3 2 2 3 5 7 9 9 9 10 10 10 10 10 10 10 10 10 9 9 10 10 9 9
9 8 3 3 2 3 6 1 4 3 3 1 1 3 4 5 6 7 7 7 6 6 5 4 3 6 7 7 7 7 7 7 7 8 8 8 7 7 7 8 8 7 7 6
6 7 3 4 1 1 3 3 2 3 2 3 5 7 6 6 7 7 8 9 9 8 8 7 6 6 7 5 5 5 6 6 5 5 5 5 5 5 5 6 6 6 6 5
2 1 4 4 3 3 2 2 2 1 1 4 6 7 7 8 8 8 9 9 9 10 10 9 8 8 8 6 5 6 7 6 6 5 4 3 4 4 4 3 3 4 4 4
1 1 2 4 4 4 4 2 2 1 2 6 8 8 8 8 9 9 10 10 10 12 12 11 10 9 9 7 7 8 8 7 6 5 5 4 3 3 3 3 3 3 3 3
2 2 2 4 6 6 5 5 6 6 7 9 11 10 10 10 10 10 10 11 11 11 11 11 10 10 9 8 8 8 8 6 6 6 6 5 5 4 3 3 2 1 1 0
1 2 2 3 4 6 7 8 9 11 12 12 13 13 13 12 11 11 12 12 12 12 12 11 10 10 9 8 8 7 7 5 5 5 5 5 6 6 9 7 9 9 9 6
2 4 6 6 6 7 9 10 12 13 13 13 13 13 13 12 12 12 12 13 12 12 11 11 11 11 10 9 9 8 7 5 5 5 5 5 4 4 5 6 8 9 9 8
6 7 7 7 7 10 12 13 14 15 14 14 14 13 13 13 12 12 12 11 11 11 12 12 12 11 10 9 9 8 8 7 6 5 5 4 4 3 3 3 3 4 6 7
6 6 9 10 11 12 13 14 15 15 15 14 13 13 13 12 12 11 11 11 11 12 12 12 12 11 9 9 9 9 8 7 6 5 5 5 4 4 4 4 3 3 3 4
8 10 12 13 13 13 13 14 14 14 14 14 12 12 12 12 12 11 11 11 12 12 11 11 11 10 9 9 8 7 7 8 6 4 5 4 4 4 4 3 3 4 4 5
11 12 13 14 13 13 13 13 14 14 13 13 12 12 12 12 12 12 11 11 11 11 11 10 10 9 9 9 7 6 6 5 4 4 5 5 5 5 4 4 4 4 4 5
9 11 12 13 13 14 14 14 13 13 13 13 12 11 11 11 11 10 10 10 10 11 11 10 9 9 9 10 8 6 6 5 5 5 5 5 5 4 4 4 4 4 4 3
11 13 13 14 14 14 14 13 13 13 12 11 11 11 11 11 10 10 9 9 9 10 10 10 8 8 9 10 8 5 6 6 5 5 4 4 4 5 5 5 5 5 5 5
14 15 15 14 14 14 14 13 13 12 11 12 12 12 11 10 9 9 9 10 10 9 8 8 8 8 8 9 8 6 6 6 6 5 5 5 5 5 5 5 6 6 6 5
15 16 15 14 14 14 14 13 12 12 11 11 11 11 10 9 8 7 7 8 9 8 7 6 7 8 8 7 6 6 7 6 6 5 5 5 5 5 6 6 6 6 6 6
13 14 14 14 13 13 12 11 12 12 11 11 10 10 9 8 8 8 9 7 7 6 6 7 8 9 10 8 6 6 6 6 5 5 5 5 5 5 5 6 5 6 6 6
12 12 13 12 12 12 11 11 11 10 10 10 9 8 8 7 6 6 6 6 6 7 7 8 9 10 11 5 6 6 6 6 6 5 5 5 5 5 5 5 5 5 6 6
11 12 12 11 11 11 11 10 9 9 9 9 8 8 7 6 6 7 7 7 7 6 7 8 8 9 7 5 6 6 6 6 6 5 5 5 5 5 5 5 5 5 6 7
11 11 11 11 10 8 9 9 9 8 8 7 8 7 6 6 6 6 6 7 6 4 6 6 4 6 5 6 6 6 6 6 6 5 5 5 5 5 5 5 6 6 6 7
10 9 8 8 7 6 6 6 6 6 6 6 6 7 6 6 6 5 5 6 6 5 5 5 5 4 6 6 6 6 5 5 5 5 6 5 5 6 6 6 7 6 6 7
9 8 7 7 6 6 6 6 6 6 6 6 6 6 6 5 5 5 5 4 4 4 4 4 4 4 5 5 5 5 5 5 5 5 5 5 5 5 6 7 6 6 6 7
Wind_Direction
253 255 239 237 233 228 235 252 265 268 266 286 346 11 25 154 172 172 176 182 183 184 186 186 186 185 187 187 188 187 187 191 191 193 193 195 196 195 196 199 202 202 204 206
239 241 241 245 242 239 242 250 255 259 264 321 25 42 48 63 182 185 184 188 192 191 190 192 191 190 190 190 189 190 192 194 193 195 195 196 198 199 199 201 205 204 207 209
242 234 242 240 238 242 245 247 253 259 266 292 307 42 28 20 12 219 200 198 201 201 199 198 197 194 194 193 189 192 196 197 195 196 199 200 201 201 203 204 205 207 209 211
242 231 240 230 16 263 254 260 270 271 278 280 12 80 60 42 29 24 2 274 218 210 203 201 197 193 193 190 188 190 194 196 195 197 201 202 203 205 206 206 206 207 210 212
235 236 239 200 204 267 254 245 355 321 298 280 136 137 91 49 36 31 23 7 324 230 201 189 189 186 182 185 184 186 189 192 194 194 196 198 200 202 202 203 206 209 211 213
234 239 241 152 76 325 257 221 46 25 11 303 211 228 87 48 40 39 36 37 41 65 115 147 174 175 171 176 179 185 188 189 188 187 190 193 198 200 200 202 207 211 214 217
238 242 234 60 17 253 236 163 39 25 19 29 40 43 75 61 51 47 48 49 53 61 69 81 132 156 160 162 170 175 172 170 172 175 180 185 190 195 197 198 201 205 208 211
233 237 217 53 10 304 5 18 11 7 20 65 90 97 91 77 67 58 56 56 58 63 61 57 73 109 119 123 134 140 142 143 147 156 167 169 171 177 186 195 193 194 200 210
280 336 51 28 13 0 338 318 331 326 21 114 113 105 96 86 77 69 63 63 64 69 67 60 60 76 93 95 111 121 122 122 122 125 130 134 142 153 161 175 194 201 204 210
208 122 51 36 33 35 36 42 38 74 126 127 115 107 97 89 80 74 71 70 69 70 69 63 58 63 70 79 89 100 104 107 109 112 113 112 117 131 142 157 178 194 212 216
185 129 78 46 45 50 54 66 79 84 95 108 108 103 98 91 83 78 75 71 69 70 68 66 62 60 60 69 84 90 93 96 103 106 105 101 91 66 81 75 54 76 158 193
193 120 110 80 66 73 80 84 90 94 93 94 97 98 93 86 80 77 75 72 69 67 68 66 65 64 61 64 76 86 89 88 91 94 93 98 103 93 60 66 70 61 44 40
96 103 99 101 88 90 95 94 94 95 96 95 93 94 92 88 82 78 75 73 71 69 68 66 64 60 56 59 67 74 79 77 83 87 95 98 102 110 112 96 91 84 74 63
123 120 112 106 103 105 106 104 100 97 95 94 94 93 91 89 84 80 78 78 76 73 71 69 65 57 53 59 63 66 73 70 64 71 73 78 81 82 81 83 94 93 99 90
122 119 123 118 114 112 113 111 107 103 101 98 97 95 93 92 90 87 86 85 81 75 69 67 65 57 53 60 63 60 58 57 57 62 67 67 64 63 62 58 51 48 57 97
124 122 125 124 121 121 119 115 111 110 108 107 104 103 102 99 94 88 83 79 77 73 67 62 59 53 50 51 57 65 68 54 40 55 62 60 55 50 47 42 37 31 28 25
141 139 135 132 130 127 122 118 116 115 114 111 109 109 108 103 97 91 85 78 73 68 62 56 50 45 44 42 40 49 54 62 56 47 51 46 39 31 25 20 25 24 25 45
141 139 139 137 133 126 121 118 117 117 116 115 115 111 106 100 95 92 87 82 76 66 56 50 45 46 45 40 31 28 36 38 39 41 43 40 27 23 21 19 16 12 9 33
129 129 128 127 126 124 122 120 118 115 114 112 109 104 101 98 95 92 88 80 72 65 52 48 38 42 45 32 11 27 28 30 33 36 32 33 14 19 15 13 11 8 4 2
123 123 122 121 121 121 119 118 116 113 111 110 108 104 100 96 94 91 85 73 58 52 51 38 39 40 36 28 1 23 30 29 28 27 25 20 18 15 12 10 7 5 5 1
121 121 119 117 115 114 114 115 114 113 112 110 108 105 101 97 91 86 81 79 65 46 51 51 40 35 31 15 2 28 30 27 25 26 21 17 15 14 12 9 6 3 358 354
115 116 116 116 116 112 110 112 113 113 111 109 107 107 106 101 93 83 71 65 67 26 33 47 44 32 7 347 27 32 29 26 25 25 22 20 20 17 13 9 4 359 354 349
115 117 117 116 114 112 110 111 110 109 106 104 103 101 95 84 78 81 81 65 61 42 45 49 33 10 341 7 35 36 34 30 26 26 26 22 19 16 13 8 4 358 354 352
110 110 111 113 113 112 111 110 107 105 103 100 96 93 94 94 84 75 81 81 58 51 61 55 27 357 336 33 37 38 37 33 30 28 25 23 20 17 16 11 7 3 358 353
104 104 108 113 111 110 111 114 113 111 108 101 97 92 85 79 82 81 82 82 76 60 73 76 41 348 18 41 41 41 41 38 29 21 24 22 19 16 14 11 6 1 358 355
103 102 98 96 98 108 116 116 113 111 109 105 99 91 87 85 89 90 88 85 79 68 58 58 53 37 44 46 45 42 40 43 36 32 27 20 20 17 12 7 5 359 355 354
102 102 103 102 101 101 103 103 102 100 99 100 99 95 92 88 82 80 79 75 73 66 60 56 51 49 49 46 47 44 41 39 35 32 27 23 20 15 11 6 1 357 354 359
Height
1437 1436 1437 1440 1442 1443 1445 1443 1446 1443 1442 1443 1446 1450 1453 1455 1456 1458 1460 1462 1465 1467 1470 1473 1476 1478 1481 1484 1488 1492 1495 1498 1502 1506 1509 1513 1516 1519 1522 1525 1528 1530 1532 1534
1442 1438 1439 1442 1440 1440 1441 1441 1442 1442 1444 1445 1449 1452 1455 1456 1457 1458 1459 1462 1464 1466 1468 1470 1473 1476 1479 1482 1485 1489 1492 1496 1499 1503 1506 1509 1513 1516 1519 1521 1524 1526 1528 1530
1443 1439 1442 1446 1439 1439 1439 1438 1440 1443 1445 1447 1449 1453 1456 1457 1458 1458 1459 1461 1462 1464 1466 1467 1470 1472 1475 1479 1482 1486 1489 1493 1496 1499 1503 1506 1509 1512 1514 1517 1519 1521 1523 1525
1442 1447 1457 1441 1437 1438 1440 1440 1440 1442 1445 1448 1451 1455 1457 1458 1459 1459 1459 1460 1461 1462 1463 1465 1467 1470 1472 1476 1479 1482 1486 1489 1492 1496 1499 1502 1505 1507 1510 1512 1514 1516 1518 1520
1444 1446 1442 1442 1441 1442 1444 1445 1446 1447 1448 1450 1452 1454 1457 1459 1460 1459 1459 1459 1459 1460 1461 1463 1465 1467 1470 1473 1476 1479 1482 1485 1488 1492 1495 1498 1500 1502 1505 1508 1510 1512 1514 1515
1445 1449 1449 1443 1443 1445 1447 1450 1450 1450 1451 1451 1452 1450 1456 1461 1460 1460 1459 1458 1458 1459 1460 1461 1463 1465 1467 1470 1473 1476 1479 1481 1485 1487 1490 1493 1496 1499 1501 1503 1505 1507 1509 1510
1445 1446 1440 1443 1446 1446 1452 1452 1453 1453 1453 1453 1454 1457 1461 1461 1461 1460 1460 1459 1458 1459 1459 1460 1462 1464 1466 1468 1471 1474 1477 1479 1482 1484 1487 1489 1492 1495 1497 1499 1501 1503 1504 1506
1445 1449 1449 1447 1446 1448 1452 1453 1454 1455 1456 1456 1458 1459 1461 1462 1462 1461 1461 1460 1459 1459 1460 1461 1462 1463 1465 1467 1470 1473 1475 1477 1479 1482 1485 1487 1489 1491 1493 1495 1497 1499 1500 1501
1446 1449 1450 1451 1452 1454 1454 1454 1455 1455 1457 1457 1458 1460 1461 1462 1463 1463 1463 1462 1462 1462 1462 1463 1463 1464 1466 1468 1470 1472 1474 1476 1479 1481 1483 1485 1487 1489 1491 1492 1495 1496 1497 1498
1448 1449 1452 1453 1454 1454 1454 1454 1455 1455 1456 1458 1459 1461 1463 1464 1464 1465 1465 1465 1465 1465 1464 1465 1466 1467 1468 1469 1471 1473 1474 1477 1479 1481 1483 1484 1486 1488 1489 1491 1492 1494 1495 1496
1449 1452 1453 1455 1455 1455 1455 1455 1455 1456 1457 1459 1460 1462 1464 1466 1467 1467 1468 1468 1468 1468 1468 1469 1470 1470 1471 1472 1473 1475 1476 1478 1480 1481 1483 1485 1486 1487 1488 1490 1491 1492 1493 1494
1449 1453 1454 1457 1457 1457 1456 1457 1458 1458 1460 1461 1462 1465 1467 1469 1470 1471 1471 1472 1472 1473 1473 1474 1474 1474 1475 1475 1476 1477 1479 1481 1482 1483 1484 1485 1486 1487 1488 1490 1490 1491 1491 1492
1453 1454 1456 1458 1459 1459 1459 1460 1461 1462 1463 1465 1467 1469 1470 1472 1474 1475 1475 1476 1476 1477 1478 1478 1478 1478 1478 1479 1479 1480 1481 1483 1484 1485 1486 1487 1488 1488 1489 1490 1490 1489 1490 1490
1455 1456 1458 1460 1461 1462 1462 1464 1465 1466 1468 1470 1472 1474 1475 1477 1478 1479 1480 1481 1482 1482 1482 1482 1482 1482 1483 1483 1483 1484 1484 1485 1486 1487 1487 1489 1489 1489 1490 1490 1490 1489 1489 1488
1457 1458 1459 1461 1463 1465 1466 1468 1469 1471 1473 1475 1477 1479 1480 1481 1483 1484 1485 1487 1487 1486 1486 1487 1487 1487 1487 1487 1487 1487 1487 1488 1488 1489 1489 1489 1490 1490 1490 1490 1490 1490 1489 1488
1458 1460 1461 1463 1465 1468 1470 1472 1473 1476 1478 1480 1482 1484 1485 1487 1488 1489 1490 1491 1491 1491 1491 1491 1491 1491 1491 1491 1490 1490 1490 1490 1490 1490 1491 1491 1491 1491 1490 1490 1490 1489 1489 1488
1458 1461 1463 1465 1468 1471 1473 1475 1477 1480 1482 1484 1486 1488 1490 1491 1493 1494 1494 1495 1495 1495 1495 1495 1495 1495 1494 1493 1493 1493 1493 1492 1492 1492 1492 1491 1491 1491 1491 1490 1490 1489 1488 1487
1460 1462 1464 1467 1470 1473 1476 1479 1481 1484 1486 1488 1490 1492 1494 1495 1496 1497 1498 1498 1498 1498 1498 1497 1497 1497 1496 1495 1495 1495 1495 1494 1494 1493 1493 1492 1492 1492 1491 1490 1490 1489 1488 1487
1461 1464 1467 1470 1473 1475 1478 1482 1484 1487 1489 1491 1493 1495 1497 1498 1499 1501 1501 1501 1501 1501 1501 1500 1499 1499 1498 1497 1496 1496 1496 1495 1494 1494 1493 1492 1492 1492 1491 1490 1489 1488 1487 1486
1464 1467 1470 1473 1476 1479 1482 1485 1488 1490 1493 1495 1496 1498 1500 1501 1502 1503 1503 1503 1504 1503 1503 1502 1502 1500 1499 1498 1497 1497 1496 1496 1495 1494 1494 1493 1493 1492 1491 1490 1489 1488 1487 1485
1467 1470 1474 1477 1480 1483 1486 1488 1491 1493 1495 1498 1499 1501 1503 1504 1505 1505 1506 1506 1505 1505 1505 1504 1503 1501 1500 1499 1498 1498 1497 1496 1495 1494 1493 1493 1492 1491 1490 1489 1488 1487 1486 1484
1471 1474 1478 1481 1484 1486 1489 1492 1494 1496 1498 1500 1502 1504 1505 1506 1507 1507 1507 1508 1507 1506 1506 1505 1503 1502 1500 1500 1500 1499 1497 1496 1495 1495 1494 1493 1492 1491 1490 1489 1488 1486 1485 1483
1476 1479 1482 1485 1487 1490 1493 1495 1497 1499 1501 1503 1504 1506 1507 1508 1509 1509 1509 1509 1508 1507 1506 1505 1503 1502 1501 1501 1500 1499 1498 1497 1496 1495 1494 1493 1492 1491 1490 1489 1487 1486 1484 1482
1480 1483 1485 1488 1491 1493 1496 1498 1500 1502 1503 1505 1506 1507 1508 1509 1509 1510 1509 1508 1508 1507 1506 1504 1503 1502 1501 1502 1501 1500 1498 1497 1496 1496 1495 1494 1493 1491 1490 1488 1487 1485 1483 1482
1484 1487 1489 1492 1494 1496 1498 1500 1502 1504 1505 1506 1507 1508 1509 1509 1510 1510 1510 1509 1508 1508 1507 1505 1504 1503 1503 1502 1501 1500 1499 1497 1496 1495 1495 1494 1493 1491 1490 1488 1486 1485 1483 1480
1488 1490 1493 1494 1496 1498 1500 1502 1504 1505 1506 1507 1508 1509 1509 1510 1510 1510 1510 1509 1508 1508 1507 1506 1505 1504 1504 1503 1501 1500 1499 1498 1497 1496 1495 1494 1492 1491 1489 1488 1486 1484 1482 1480
1492 1494 1496 1498 1499 1501 1502 1504 1505 1506 1507 1508 1508 1509 1510 1510 1510 1510 1510 1510 1509 1509 1508 1507 1506 1505 1504 1503 1502 1501 1500 1499 1497 1496 1495 1494 1492 1491 1489 1487 1485 1484 1481 1479